Auburn, IN

11:10 AM EST on December 13, 2019 (GMT -0500)
Auburn

Weather History for KGWB - August, 2019

Change the Weather History Date:

Tuesday, August 13, 2019

  Actual Average (KFWA) Record (KFWA)
Temperature  
Mean Temperature 74 °F -  
Max Temperature 80 °F 82 °F 98 °F (1936)
Min Temperature 68 °F 59 °F 46 °F (1967)
Cooling Degree Days 9    
Growing Degree Days 24 (Base 50)    
Moisture  
Dew Point 71 °F    
Average Humidity 93    
Maximum Humidity 100    
Minimum Humidity 70    
Precipitation  
Precipitation 0.68 in - - ()
Sea Level Pressure  
Sea Level Pressure 29.83 in    
Wind  
Wind Speed 2 mph (WNW)    
Max Wind Speed 10 mph    
Max Gust Speed 20 mph    
Visibility 7 miles    
Events Rain    
Averages and records for this station are not official NWS values.
T = Trace of Precipitation, MM = Missing Value Source: NWS Daily Summary

Daily Weather History Graph

Daily Weather History Graph

Search for Another Location

Airport or City:

Astronomy

Aug. 13, 2019 Rise Set
Actual Time 6:47 AM EDT 8:42 PM EDT
Civil Twilight 6:17 AM EDT 9:12 PM EDT
Nautical Twilight 5:40 AM EDT 9:48 PM EDT
Astronomical Twilight 5:01 AM EDT 10:27 PM EDT
Moon 7:57 PM EDT 4:46 AM EDT
Length of Visible Light 14h 54m
Length of Day
13h 55m
Waxing Gibbous, 97% of the Moon is Illuminated
Aug 13
Waxing Gibbous
Aug 15
Full
Aug 23
Last Quarter
Aug 30
New
Sep 5
First Quarter

Hourly Weather History & Observations

Time (EDT) Temp. Heat Index Dew Point Humidity Pressure Visibility Wind Dir Wind Speed Gust Speed Precip Events Conditions
12:15 AM 71.6 °F - 71.6 °F 100% 29.84 in 7.0 mi SSW 4.6 mph - N/A   Overcast
12:35 AM 71.6 °F - 71.6 °F 100% 29.84 in 5.0 mi SW 3.5 mph - N/A   Drizzle
12:55 AM 71.6 °F - 71.6 °F 100% 29.84 in 10.0 mi Calm Calm - N/A   Overcast
1:15 AM 71.6 °F - 71.6 °F 100% 29.83 in 7.0 mi Calm Calm - N/A   Overcast
1:35 AM 71.6 °F - 71.6 °F 100% 29.83 in 10.0 mi Calm Calm - N/A   Overcast
1:55 AM 71.6 °F - 71.6 °F 100% 29.82 in 10.0 mi Calm Calm - N/A   Overcast
2:15 AM 71.6 °F - 71.6 °F 100% 29.80 in 7.0 mi Calm Calm - N/A   Overcast
2:35 AM 71.6 °F - 71.6 °F 100% 29.80 in 5.0 mi Calm Calm - N/A   Drizzle
2:55 AM 71.6 °F - 71.6 °F 100% 29.80 in 5.0 mi Calm Calm - N/A   Drizzle
3:15 AM 71.6 °F - 71.6 °F 100% 29.82 in 5.0 mi West 3.5 mph - N/A   Overcast
3:35 AM 71.6 °F - 71.6 °F 100% 29.81 in 5.0 mi Calm Calm - 0.01 in   Drizzle
3:55 AM 69.8 °F - 69.8 °F 100% 29.79 in 5.0 mi Calm Calm - 0.03 in Rain Rain
4:15 AM 69.8 °F - 69.8 °F 100% 29.78 in 4.0 mi Calm Calm - 0.02 in Rain Rain
4:35 AM 69.8 °F - 69.8 °F 100% 29.77 in 4.0 mi NE 3.5 mph - 0.03 in Rain Light Rain
4:55 AM 69.8 °F - 69.8 °F 100% 29.77 in 5.0 mi Calm Calm - 0.03 in   Scattered Clouds
5:15 AM 69.8 °F - 69.8 °F 100% 29.77 in 7.0 mi Calm Calm - N/A   Mostly Cloudy
5:35 AM 69.8 °F - 69.8 °F 100% 29.78 in 7.0 mi NNE 3.5 mph - N/A   Mostly Cloudy
5:55 AM 69.8 °F - 69.8 °F 100% 29.78 in 5.0 mi Calm Calm - N/A   Scattered Clouds
6:15 AM 69.8 °F - 69.8 °F 100% 29.78 in 3.0 mi Calm Calm - N/A   Scattered Clouds
6:35 AM 69.8 °F - 69.8 °F 100% 29.78 in 5.0 mi Calm Calm - N/A   Clear
6:55 AM 69.8 °F - 69.8 °F 100% 29.79 in 5.0 mi Calm Calm - N/A   Scattered Clouds
7:15 AM 69.8 °F - 69.8 °F 100% 29.79 in 5.0 mi Calm Calm - N/A   Mostly Cloudy
7:35 AM 69.8 °F - 69.8 °F 100% 29.80 in 5.0 mi Calm Calm - N/A   Overcast
7:55 AM 69.8 °F - 69.8 °F 100% 29.81 in 5.0 mi Calm Calm - N/A   Overcast
8:15 AM 69.8 °F - 69.8 °F 100% 29.81 in 5.0 mi Calm Calm - N/A   Overcast
8:35 AM 69.8 °F - 69.8 °F 100% 29.81 in 5.0 mi Calm Calm - N/A   Overcast
8:55 AM 69.8 °F - 69.8 °F 100% 29.81 in 5.0 mi Calm Calm - N/A Rain Rain
9:15 AM 69.8 °F - 69.8 °F 100% 29.82 in 7.0 mi Calm Calm - N/A   Overcast
9:35 AM 69.8 °F - 69.8 °F 100% 29.82 in 7.0 mi WNW 3.5 mph - N/A   Overcast
9:55 AM 71.6 °F - 71.6 °F 100% 29.82 in 2.0 mi WSW 3.5 mph - N/A   Light Drizzle
10:15 AM 71.6 °F - 69.8 °F 94% 29.83 in 3.0 mi Calm Calm - N/A Rain Light Rain
10:35 AM 69.8 °F - 69.8 °F 100% 29.83 in 1.5 mi Calm Calm - 0.02 in   Heavy Drizzle
10:55 AM 69.8 °F - 69.8 °F 100% 29.84 in 2.0 mi Calm Calm - 0.04 in   Light Drizzle
11:15 AM 71.6 °F - 71.6 °F 100% 29.84 in 3.0 mi WSW 3.5 mph - N/A   Overcast
11:35 AM 71.6 °F - 71.6 °F 100% 29.84 in 4.0 mi Calm Calm - N/A Rain Light Rain
11:55 AM 73.4 °F - 71.6 °F 94% 29.84 in 5.0 mi WSW 3.5 mph - N/A   Mostly Cloudy
12:15 PM 73.4 °F - 71.6 °F 94% 29.83 in 7.0 mi West 4.6 mph - N/A   Mostly Cloudy
12:35 PM 73.4 °F - 71.6 °F 94% 29.83 in 10.0 mi West 4.6 mph - N/A   Mostly Cloudy
12:55 PM 73.4 °F - 71.6 °F 94% 29.83 in 10.0 mi West 6.9 mph - N/A   Mostly Cloudy
1:15 PM 77.0 °F - 73.4 °F 89% 29.83 in 10.0 mi West 8.1 mph - N/A   Mostly Cloudy
1:35 PM 77.0 °F - 71.6 °F 83% 29.82 in 10.0 mi WNW 5.8 mph - N/A   Mostly Cloudy
1:55 PM 78.8 °F - 71.6 °F 78% 29.82 in 10.0 mi WNW 5.8 mph - N/A   Mostly Cloudy
2:15 PM 78.8 °F - 71.6 °F 78% 29.82 in 10.0 mi West 5.8 mph - N/A   Mostly Cloudy
2:35 PM 78.8 °F - 71.6 °F 78% 29.81 in 10.0 mi West 5.8 mph - N/A   Mostly Cloudy
2:55 PM 80.6 °F 83.9 °F 69.8 °F 70% 29.81 in 10.0 mi WNW 6.9 mph - N/A   Scattered Clouds
3:15 PM 73.4 °F - 69.8 °F 88% 29.82 in 10.0 mi NNE 10.4 mph 18.4 mph N/A Rain Light Rain
3:35 PM 73.4 °F - 71.6 °F 94% 29.83 in 10.0 mi NNE 5.8 mph - N/A   Mostly Cloudy
3:55 PM 73.4 °F - 71.6 °F 94% 29.82 in 10.0 mi NNE 5.8 mph - N/A   Mostly Cloudy
4:15 PM 75.2 °F - 71.6 °F 89% 29.83 in 10.0 mi North 5.8 mph - N/A   Mostly Cloudy
4:35 PM 77.0 °F - 71.6 °F 83% 29.82 in 10.0 mi North 5.8 mph - N/A   Scattered Clouds
4:55 PM 78.8 °F - 71.6 °F 78% 29.83 in 10.0 mi NNE 5.8 mph - N/A   Scattered Clouds
5:15 PM 77.0 °F - 69.8 °F 78% 29.83 in 10.0 mi North 5.8 mph - N/A   Scattered Clouds
5:35 PM 77.0 °F - 69.8 °F 78% 29.84 in 10.0 mi North 3.5 mph - N/A   Scattered Clouds
5:55 PM 78.8 °F - 69.8 °F 74% 29.84 in 10.0 mi North 3.5 mph - N/A   Scattered Clouds
6:15 PM 78.8 °F - 69.8 °F 74% 29.84 in 10.0 mi Calm Calm - N/A   Mostly Cloudy
6:35 PM 78.8 °F - 69.8 °F 74% 29.84 in 10.0 mi Calm Calm - N/A   Scattered Clouds
6:55 PM 77.0 °F - 71.6 °F 83% 29.85 in 10.0 mi Calm Calm - N/A   Clear
7:15 PM 77.0 °F - 71.6 °F 83% 29.84 in 10.0 mi Calm Calm - N/A   Clear
7:35 PM 77.0 °F - 71.6 °F 83% 29.84 in 10.0 mi Calm Calm - N/A   Clear
7:55 PM 77.0 °F - 71.6 °F 83% 29.85 in 10.0 mi Calm Calm - N/A   Scattered Clouds
8:15 PM 73.4 °F - 71.6 °F 94% 29.85 in 10.0 mi Calm Calm - N/A   Scattered Clouds
8:35 PM 73.4 °F - 71.6 °F 94% 29.85 in 10.0 mi Calm Calm - N/A   Scattered Clouds
8:55 PM 73.4 °F - 71.6 °F 94% 29.85 in 10.0 mi Calm Calm - N/A   Scattered Clouds
9:15 PM 73.4 °F - 71.6 °F 94% 29.86 in 10.0 mi Calm Calm - N/A   Clear
9:35 PM 71.6 °F - 71.6 °F 100% 29.87 in 7.0 mi Calm Calm - N/A   Scattered Clouds
9:55 PM 73.4 °F - 71.6 °F 94% 29.88 in 10.0 mi Calm Calm - N/A   Mostly Cloudy
10:15 PM 73.4 °F - 71.6 °F 94% 29.88 in 10.0 mi NW 6.9 mph - N/A   Mostly Cloudy
10:35 PM 71.6 °F - 68.0 °F 88% 29.89 in 2.5 mi WSW 10.4 mph 19.6 mph 0.46 in Rain Heavy Rain
10:55 PM 69.8 °F - 68.0 °F 94% 29.89 in 5.0 mi Calm Calm - 0.57 in Rain Rain
11:15 PM 69.8 °F - 68.0 °F 94% 29.89 in 7.0 mi Calm Calm - 0.01 in   Scattered Clouds
11:35 PM 68.0 °F - 68.0 °F 100% 29.89 in 7.0 mi South 3.5 mph - 0.01 in   Scattered Clouds
11:55 PM 68.0 °F - 68.0 °F 100% 29.89 in 7.0 mi South 3.5 mph - 0.01 in   Scattered Clouds